Back to catalog

STARLINK-31888

AliveCommunicationsVLEO
NORAD 59788·PAYLOAD·🇺🇸 United States

Launched May 18, 2024 from Cape Canaveral Space Force Station

Loading…

Next Passes (next 24 hours)

TLE

FreshSource: CelesTrak SupGP

Epoch: Sep 14, 2026, 21:14 UTC

1 59788C 24093G   26257.88520833  .00037349  00000+0  13528-2 0  2577
2 59788  43.0027 220.1743 0001639 265.0010  82.3717 15.27558164    10

Track STARLINK-31888 in real time with AllMySat

Download on the App Store